Regional Weather Roundup
Issued by NWS State College, PA

Home | Current Version | Previous Version | Graphics & Text | Print | Product List | Glossary On
Versions: 1 2 3 4 5 6 7 8 9 10 11 12 13 14 15 16 17 18 19 20 21 22 23 24 25 26 27 28 29 30 31 32 33 34 35 36 37 38 39 40 41 42 43 44 45 46 47 48 49 50
000
ASUS41 KCTP 220510
RWRCTP

REGIONAL WEATHER ROUNDUP
NATIONAL WEATHER SERVICE STATE COLLEGE PA
100 AM EDT SUN APR 22 2018

Note: "fair" indicates few or no clouds below 12,000 feet with no
significant weather and/or obstructions to visibility.

* = STATION THAT DOES NOT REPORT PRECIPITATION /E.G. RAIN...SNOW...ETC/
    THUNDER OR FOG.

PAZ002>004-007>009-013>016-020>023-029>032-220600-
WESTERN PENNSYLVANIA

CITY           SKY/WX    TMP DP  RH WIND       PRES   REMARKS
ERIE           FAIR      34  29  82 CALM      30.42R
MEADVILLE      FAIR      42  19  39 NE5       30.38S
FRANKLIN*      FAIR      42  19  39 NE5       30.39R
NEW CASTLE     FAIR      45  28  51 N5        30.38S
BEAVER COUNTY  NOT AVBL
BUTLER*        FAIR      47  27  45 NE8       30.36F
PITTSBURGH INT CLOUDY    49  29  46 NE8       30.35S
PITTSBURGH     CLOUDY    48  28  46 N3        30.34F
INDIANA*       MOCLDY    45  32  61 CALM      30.39F
LATROBE        FAIR      45  32  61 CALM      30.36F
WASHINGTON CO* CLOUDY    44  36  73 CALM      30.37F
$$

PAZ004>006-010>012-017>019-024>028-033>037-041-042-045-046-049>053-220600-
CENTRAL PENNSYLVANIA

CITY           SKY/WX    TMP DP  RH WIND       PRES   REMARKS
BRADFORD       FAIR      31  21  66 CALM      30.38S
DUBOIS         FAIR      42  21  43 NE6       30.36S
CLEARFIELD     FAIR      41  22  46 N6        30.38R
JOHNSTOWN      FAIR      47  17  30 CALM      30.34S
ALTOONA        FAIR      45  32  60 CALM      30.36S
STATE COLLEGE  FAIR      45  23  41 NE3       30.39R
WILLIAMSPORT   FAIR      42  26  53 CALM      30.39R
SELINSGROVE    FAIR      37  31  78 CALM      30.40R
FT INDIANTOWN  CLOUDY    43  32  64 CALM      30.38R
CAPITAL CITY   FAIR      47  34  60 CALM      30.38R
HARRISBURG     MOCLDY    45  36  70 NE5       30.38R
YORK           FAIR      42  35  76 CALM      30.38R
$$

PAZ038>040-043-044-047-048-054-055-060>062-067>071-220600-
EASTERN PENNSYLVANIA

CITY           SKY/WX    TMP DP  RH WIND       PRES   REMARKS
SCRANTON       FAIR      36  24  62 CALM      30.39R
MOUNT POCONO   FAIR      37  17  44 W5        30.35R
ALLENTOWN      FAIR      50  21  32 NW3       30.39R
QUAKERTOWN*    CLEAR     39  34  81 CALM      30.39R
READING        FAIR      47  33  58 CALM      30.38R
LANCASTER      FAIR      46  31  55 NE5       30.38R
COATESVILLE    FAIR      48  27  43 CALM      30.39R
POTTSTOWN      FAIR      42  29  59 CALM      30.40R
BLUE BELL      FAIR      37  36  93 CALM      30.40R
DOYLESTOWN     FAIR      45  25  45 N3        30.38R
WILLOW GROVE   NOT AVBL
NORTH PHILA    FAIR      48  29  47 N6        30.40R
PHILADELPHIA   CLOUDY    46  33  60 NE5       30.39R
$$



USA.gov is the U.S. government's official web portal to all federal, state and local government web resources and services.